Weather History for KPAE - December, 2013

Change the Weather History Date:

Saturday, December 7, 2013

  Actual Average Record
Temperature  
Mean Temperature 22 °F -  
Max Temperature 27 °F 45 °F 58 °F (1965)
Min Temperature 18 °F 34 °F 14 °F (1972)
Degree Days  
Heating Degree Days 42    
Moisture  
Dew Point 3 °F    
Average Humidity 44    
Maximum Humidity 65    
Minimum Humidity 32    
Precipitation  
Precipitation 0.00 in - - ()
Sea Level Pressure  
Sea Level Pressure 30.36 in    
Wind  
Wind Speed 5 mph (NE)    
Max Wind Speed 9 mph    
Max Gust Speed -    
Visibility 10 miles    
Events      
Averages and records for this station are not official NWS values.
T = Trace of Precipitation, MM = Missing Value Source: NWS Daily Summary

Daily Weather History Graph

Daily Weather History Graph

Search for Another Location

Airport or City:

Trip Planner

Search our weather history database for the weather conditions in past years. The results will help you decide how hot, cold, wet, or windy it might be!

Date:

Astronomy

Dec. 07, 2013 Rise Set
Actual Time 7:44 AM PST 4:16 PM PST
Civil Twilight 7:08 AM PST 4:52 PM PST
Nautical Twilight 6:29 AM PST 5:31 PM PST
Astronomical Twilight 5:52 AM PST 6:09 PM PST
Moon 11:17 AM PST (12/7) 10:22 PM PST (12/7)
Length of Visible Light 9h 43m
Length of Day
8h 31m
Waxing Crescent, 30% of the Moon is Illuminated
Dec 7
Waxing Crescent
Dec 9
First Quarter
Dec 17
Full
Dec 25
Last Quarter
Jan 1
New

Hourly Weather History & Observations

Time (PST) Temp. Windchill Dew Point Humidity Pressure Visibility Wind Dir Wind Speed Gust Speed Precip Events Conditions
12:53 AM 21.9 °F 13.4 °F 3.0 °F 44% 30.25 in 10.0 mi ENE 6.9 mph - N/A   Clear
1:53 AM 21.0 °F 14.6 °F 3.0 °F 46% 30.25 in 10.0 mi NE 4.6 mph - N/A   Clear
2:53 AM 19.9 °F 14.9 °F 1.0 °F 44% 30.27 in 10.0 mi NE 3.5 mph - N/A   Clear
3:53 AM 19.9 °F 13.4 °F 1.0 °F 44% 30.27 in 10.0 mi NE 4.6 mph - N/A   Clear
4:53 AM 19.9 °F 12.1 °F 1.9 °F 46% 30.29 in 10.0 mi NNE 5.8 mph - N/A   Clear
5:53 AM 19.9 °F 9.3 °F 1.0 °F 44% 30.30 in 10.0 mi North 9.2 mph - N/A   Clear
6:53 AM 19.0 °F 13.9 °F 1.9 °F 47% 30.31 in 10.0 mi NNE 3.5 mph - N/A   Clear
7:53 AM 19.0 °F 13.9 °F 1.0 °F 46% 30.33 in 10.0 mi NNE 3.5 mph - N/A   Clear
8:53 AM 21.9 °F - 3.0 °F 44% 30.35 in 10.0 mi Calm Calm - N/A   Clear
9:53 AM 21.9 °F - 3.9 °F 46% 30.37 in 10.0 mi Calm Calm - N/A   Clear
10:53 AM 23.0 °F 15.8 °F 7.0 °F 50% 30.38 in 10.0 mi North 5.8 mph - N/A   Clear
11:53 AM 24.1 °F 18.2 °F 3.9 °F 42% 30.38 in 10.0 mi North 4.6 mph - N/A   Clear
12:53 PM 25.0 °F 19.3 °F 3.9 °F 41% 30.37 in 10.0 mi North 4.6 mph - N/A   Clear
1:53 PM 26.1 °F 20.5 °F 1.9 °F 35% 30.37 in 10.0 mi Variable 4.6 mph - N/A   Clear
2:53 PM 27.0 °F 23.0 °F 1.0 °F 33% 30.37 in 10.0 mi Variable 3.5 mph - N/A   Clear
3:53 PM 27.0 °F 23.0 °F 1.0 °F 33% 30.39 in 10.0 mi NE 3.5 mph - N/A   Clear
4:53 PM 25.0 °F 20.7 °F 1.9 °F 37% 30.39 in 10.0 mi East 3.5 mph - N/A   Clear
5:53 PM 24.1 °F 19.7 °F -2.0 °F 32% 30.40 in 10.0 mi ENE 3.5 mph - N/A   Clear
6:53 PM 21.9 °F - -0.0 °F 38% 30.41 in 10.0 mi Calm Calm - N/A   Clear
7:53 PM 21.9 °F - -0.0 °F 38% 30.40 in 10.0 mi Calm Calm - N/A   Clear
8:53 PM 21.0 °F 14.6 °F 1.0 °F 42% 30.40 in 10.0 mi ESE 4.6 mph - N/A   Clear
9:53 PM 19.9 °F 11.1 °F 6.1 °F 55% 30.41 in 10.0 mi ESE 6.9 mph - N/A   Clear
10:53 PM 18.0 °F 8.7 °F 8.1 °F 65% 30.42 in 10.0 mi ESE 6.9 mph - N/A   Clear
11:53 PM 18.0 °F 12.7 °F 8.1 °F 65% 30.44 in 10.0 mi SE 3.5 mph - N/A   Clear